Weather History for KLNK - November, 2011

Change the Weather History Date:

Wednesday, November 9, 2011

  Actual Average Record
Temperature  
Mean Temperature 42 °F 42 °F  
Max Temperature 51 °F 54 °F 74 °F (1999)
Min Temperature 32 °F 31 °F 16 °F (1945)
Degree Days  
Heating Degree Days 23 23  
Month to date heating degree days 193 184  
Since 1 July heating degree days 671 663  
Cooling Degree Days 0 0  
Month to date cooling degree days 0 0  
Year to date cooling degree days 1296 1173  
Moisture  
Dew Point 22 °F    
Average Humidity 48    
Maximum Humidity 72    
Minimum Humidity 24    
Precipitation  
Precipitation 0.00 in 0.05 in 1.35 in (1919)
Month to date precipitation 1.61 0.49  
Year to date precipitation 27.54 27.06  
Snow  
Snow 0.00 in 0.00 in - ()
Month to date snowfall T 0.4  
Since 1 July snowfall T 1.1  
Snow Depth 0.00 in    
Sea Level Pressure  
Sea Level Pressure 30.27 in    
Wind  
Wind Speed 12 mph (NW)    
Max Wind Speed 29 mph    
Max Gust Speed 37 mph    
Visibility 10 miles    
Events      
T = Trace of Precipitation, MM = Missing Value Source: NWS Daily Summary

Daily Weather History Graph

Daily Weather History Graph

Search for Another Location

Airport or City:

Trip Planner

Search our weather history database for the weather conditions in past years. The results will help you decide how hot, cold, wet, or windy it might be!

Date:

Astronomy

Nov. 09, 2011 Rise Set
Actual Time 7:06 AM CST 5:14 PM CST
Civil Twilight 6:37 AM CST 5:43 PM CST
Nautical Twilight 6:04 AM CST 6:16 PM CST
Astronomical Twilight 5:32 AM CST 6:48 PM CST
Moon 4:26 PM CST (11/9) 6:03 AM CST (11/9)
Length of Visible Light 11h 05m
Length of Day
10h 07m
Waxing Gibbous, 99% of the Moon is Illuminated
Nov 9
Waxing Gibbous
Nov 10
Full
Nov 18
Last Quarter
Nov 25
New
Dec 2
First Quarter

Hourly Weather History & Observations

Time (CST) Temp. Windchill Dew Point Humidity Pressure Visibility Wind Dir Wind Speed Gust Speed Precip Events Conditions
12:54 AM 39.0 °F 31.0 °F 28.0 °F 65% 30.14 in 10.0 mi NNW 13.8 mph - N/A   Clear
1:54 AM 37.9 °F 30.5 °F 27.0 °F 65% 30.15 in 10.0 mi NNW 11.5 mph - N/A   Clear
2:54 AM 37.9 °F 30.9 °F 27.0 °F 65% 30.16 in 10.0 mi NNW 10.4 mph - N/A   Clear
3:54 AM 36.0 °F 28.0 °F 26.1 °F 67% 30.17 in 10.0 mi NNW 11.5 mph - N/A   Clear
4:54 AM 34.0 °F 27.2 °F 25.0 °F 70% 30.20 in 10.0 mi NW 8.1 mph - N/A   Clear
5:54 AM 33.1 °F 26.9 °F 25.0 °F 72% 30.21 in 10.0 mi NW 6.9 mph - N/A   Clear
6:54 AM 32.0 °F 24.8 °F 24.1 °F 73% 30.24 in 10.0 mi NW 8.1 mph - N/A   Clear
7:54 AM 35.6 °F 29.9 °F 24.8 °F 65% 30.23 in 10.0 mi NNW 6.9 mph - N/A   Clear
8:54 AM 39.0 °F 30.3 °F 25.0 °F 57% 30.27 in 10.0 mi NW 16.1 mph - N/A   Clear
9:54 AM 43.0 °F 35.1 °F 26.1 °F 51% 30.28 in 10.0 mi NW 17.3 mph - N/A   Clear
10:54 AM 46.0 °F 39.0 °F 27.0 °F 47% 30.30 in 10.0 mi NW 17.3 mph 23.0 mph N/A   Clear
11:54 AM 48.0 °F - 25.0 °F 41% 30.30 in 10.0 mi NW 23.0 mph 27.6 mph N/A   Clear
12:54 PM 50.0 °F - 24.8 °F 37% 30.27 in 10.0 mi NNW 18.4 mph - N/A   Clear
1:54 PM 50.0 °F - 19.9 °F 31% 30.28 in 10.0 mi NW 23.0 mph 35.7 mph N/A   Clear
2:54 PM 50.0 °F - 18.0 °F 28% 30.29 in 10.0 mi NW 24.2 mph 33.4 mph N/A   Clear
3:54 PM 48.9 °F - 14.0 °F 25% 30.30 in 10.0 mi NW 23.0 mph 31.1 mph N/A   Clear
4:54 PM 46.4 °F 40.7 °F 15.8 °F 29% 30.29 in 10.0 mi NW 12.7 mph 23.0 mph N/A   Clear
5:54 PM 43.0 °F 37.2 °F 17.1 °F 35% 30.33 in 10.0 mi WNW 10.4 mph - N/A   Clear
6:54 PM 39.0 °F 34.0 °F 18.0 °F 43% 30.34 in 10.0 mi West 6.9 mph - N/A   Clear
7:54 PM 37.4 °F 33.8 °F 19.4 °F 48% 30.30 in 10.0 mi West 4.6 mph - N/A   Clear
8:54 PM 35.1 °F 32.2 °F 19.0 °F 52% 30.34 in 10.0 mi West 3.5 mph - N/A   Clear
9:54 PM 34.0 °F 28.8 °F 19.0 °F 54% 30.33 in 10.0 mi WNW 5.8 mph - N/A   Clear
10:54 PM 35.1 °F 29.3 °F 18.0 °F 50% 30.33 in 10.0 mi West 6.9 mph - N/A   Clear
11:54 PM 34.0 °F 29.8 °F 18.0 °F 52% 30.33 in 10.0 mi NW 4.6 mph - N/A   Clear